Flag for U.S.A. Weather past 2 weeks in Thousand Oaks, California, U.S.A.

Now
60 °F

Clear.


Feels Like: 60 °F
Forecast: 53 / 78 °F
Wind: 3 mph from West

Location: Camarillo Airport


UV Index: 5 (Moderate)

Visibility: 10 mi


Pressure: 30.05 "Hg

Humidity: 75%

Dew point: 52 °F

Location of Thousand OaksLocation

Historic Weather in Thousand Oaks

°F

Thousand Oaks temperature yesterday

Maximum temperature yesterday: 71 °F (at 1:55 PM)
Minimum temperature yesterday: 52 °F (at 3:55 AM)
Average temperature yesterday: 61 °F

Past Weeks' High & Low Weather Summary

 TemperatureHumidityPressure
High83 °F (Apr 8, 12:55 PM)100% (Apr 10, 7:55 AM)30.14 "Hg (Apr 10, 7:55 AM)
Low47 °F (Apr 6, 6:55 AM)23% (Apr 8, 12:55 PM)29.81 "Hg (Apr 16, 4:55 PM)
Average60 °F69%29.99 "Hg
* Reported Apr 5 7:55 PM — Apr 20 7:55 PM, Thousand Oaks, Weather by CustomWeather, © 2014

Note: Actual official high and low records may vary slightly from our data, if they occured in-between our weather recording intervals... More about our weather records

Advertising

Historic Weather Conditions — Data for Previous 24 hours

 ConditionsComfort  
Time TempWeatherWind HumidityBarometerVisibility
7:55 PM
Apr 20
63 °FSunny.No wind68%30.04 "Hg10 mi
6:55 PM65 °FSunny.6 mph68%30.04 "Hg10 mi
5:55 PM68 °FSunny.6 mph61%30.04 "Hg10 mi
4:55 PM71 °FSunny.7 mph55%30.03 "Hg10 mi
3:55 PM70 °FSunny.6 mph57%30.03 "Hg10 mi
2:55 PM71 °FSunny.9 mph59%30.05 "Hg10 mi
1:55 PM70 °FSunny.10 mph61%30.07 "Hg10 mi
12:55 PM69 °FSunny.9 mph63%30.07 "Hg10 mi
11:55 AM70 °FSunny.10 mph61%30.08 "Hg9 mi
10:55 AM69 °FSunny.7 mph61%30.09 "Hg9 mi
9:55 AM64 °FSunny.No wind68%30.09 "Hg10 mi
8:55 AM61 °FSunny.No wind75%30.09 "Hg9 mi
7:55 AM57 °FSunny.No wind78%30.08 "Hg8 mi
6:55 AM53 °FClear.No wind83%30.06 "Hg9 mi
5:55 AM51 °FClear.3 mph86%30.04 "Hg10 mi
4:55 AM53 °FClear.No wind86%30.03 "Hg9 mi
3:55 AM55 °FClear.No wind83%30.04 "Hg9 mi
2:55 AM56 °FClear.3 mph84%30.05 "Hg9 mi
1:55 AM57 °FClear.No wind83%30.06 "Hg9 mi
12:55 AM57 °FClear.3 mph81%30.06 "Hg8 mi
11:55 PM
Apr 19
57 °FClear.No wind83%30.05 "Hg8 mi
10:55 PM58 °FClear.No wind81%30.04 "Hg8 mi
9:55 PM59 °FClear.No wind81%30.03 "Hg9 mi
Weather by CustomWeather, © 2014

See weather overview